Regional Weather Roundup
Issued by NWS

Home | Current Version | Previous Version | Text Only | Print | Product List | Glossary Off
Versions: 1 2 3 4 5 6 7 8 9 10 11 12 13 14 15 16 17 18 19 20 21 22 23 24 25 26 27 28 29 30 31 32 33 34 35 36 37 38 39 40 41 42 43 44 45 46 47 48 49 50

000
ASUS43 KIND 220809
RWRIN

WEATHER ROUNDUP FOR INDIANA
NATIONAL WEATHER SERVICE INDIANAPOLIS IN
400 AM EDT MON MAY 22 2017

NOTE: "FAIR" INDICATES FEW OR NO CLOUDS BELOW 12,000 FEET WITH NO
SIGNIFICANT WEATHER AND/OR OBSTRUCTIONS TO VISIBILITY.

* - STATION DOES NOT REPORT WEATHER SUCH AS PRECIPITATION OR FOG.

+ - STATION NOT QUALITY CONTROLLED BY THE NATIONAL WEATHER SERVICE.
    USE DATA WITH CAUTION...ESPECIALLY DEWPOINT AND RELATIVE
    HUMIDITY OBSERVATIONS.

INZ001>003-010>013-019-020-220900-
NORTHWEST INDIANA

CITY           SKY/WX    TMP DP  RH WIND       PRES   REMARKS
GARY /AIRPORT/ CLOUDY    54  40  59 W10G16    30.03S
KNOX *+        CLOUDY    50  36  57 SW10      30.03S
LA PORTE +     CLOUDY    50  44  81 SW10      30.02F
MICHIGAN CITY+ CLOUDY    50  43  76 SW9       30.02S
MONTICELLO +   PTCLDY    48  44  84 SW7       30.06S
RENSSELAER +   CLOUDY    50  45  81 SW9       30.06S
VALPARAISO     CLOUDY    52  45  77 SW10      30.03F

$$

LMZ046-743>745-220900-
SOUTHERN LAKE MICHIGAN

STATION/POSITION TIME  TEMP    WIND        PRES    WAVE
                       AIR SEA DIR/SP/G            HT
                 (UTC) (F)     (DEG/KT/KT) (MB)    (FT)
BURNS HARBOR     0740   53     230/ 10/ 16 1016.9S
MICHIGAN CITY    0740   52     220/ 19/ 22   N/A
5NW MICH CITY    0800   52 53  240/ 14/ 19   N/A     3

$$

INZ004-005-014>016-021>024-220900-
NORTH CENTRAL INDIANA

CITY           SKY/WX    TMP DP  RH WIND       PRES   REMARKS
GOSHEN         CLOUDY    51  40  65 SW13      30.02S
LOGANSPORT +   MOCLDY    46  43  87 SW8       30.07S
PERU/GRISSOM   CLEAR     47  45  92 SW10      30.06S
ROCHESTER +    CLOUDY    52  45  76 SW8       30.05S
SOUTH BEND     CLOUDY    50  43  77 SW12      30.01F
WARSAW +       CLOUDY    50  41  71 W9        30.03F

$$

INZ006>009-017-018-025>027-220900-
NORTHEAST INDIANA

CITY           SKY/WX    TMP DP  RH WIND       PRES   REMARKS
ANGOLA *+      CLOUDY    50  41  71 W10       30.01S
AUBURN +       CLOUDY    50  37  62 SW8       30.04S
FORT WAYNE     MOCLDY    50  42  74 SW12      30.05R
HUNTINGTON +   CLOUDY    49  43  78 W7        30.05S
KENDALLVILLE + CLOUDY    50  41  71 W10       30.03S

$$

INZ028-029-035-036-043>045-051>053-220900-
WEST CENTRAL INDIANA

CITY           SKY/WX    TMP DP  RH WIND       PRES   REMARKS
CRAWFORDSVL +  CLOUDY    47  46  95 SW6       30.10S
GREENCASTLE +  CLOUDY    45  43  93 CALM      30.11S
LAFAYETTE      CLEAR     47  44  90 W5        30.08S
TERRE HAUTE    PTCLDY    51  46  83 SW3       30.11F

$$

INZ030>032-037>040-046>048-054>057-064-065-220900-
CENTRAL INDIANA

CITY           SKY/WX    TMP DP  RH WIND       PRES   REMARKS
CP ATTERBURY + CLOUDY    48  45  87 CALM      30.12F
FISHERS *+     CLEAR     48  45  87 SW3       30.10S
FRANKFORT +    CLEAR     51  46  82 SW7       30.10S
GREENWOOD *+   CLOUDY    50  43  74 CALM      30.11F
INDIANAPOLIS   CLOUDY    48  42  80 SW6       30.10S
-EAGLE CREEK   CLEAR     49  42  77 S5        30.09S
KOKOMO +       CLEAR     48  43  82 SW9       30.08S
MT COMFORT *+  PTCLDY    48  43  81 S3        30.11S
SHELBYVILLE    CLOUDY    52  42  69 SW5       30.10S
ZIONSVILLE +   CLEAR     46  43  89 SW5       30.10S

$$

INZ033-034-041-042-049-050-058-059-220900-
EAST CENTRAL INDIANA

CITY           SKY/WX    TMP DP  RH WIND       PRES   REMARKS
MUNCIE         CLEAR     50  41  71 SW6       30.08R
RICHMOND +     CLOUDY    50  41  71 W9        30.11R

$$

INZ060-061-067>069-081>083-085>088-220900-
SOUTHWEST INDIANA

CITY           SKY/WX    TMP DP  RH WIND       PRES   REMARKS
EVANSVILLE     PTCLDY    56  49  77 CALM      30.14R
HUNTINGBURG *+ MOCLDY    54  49  83 CALM      30.14R
WASHINGTON +   CLOUDY    52  50  93 CALM      30.13R

$$

INZ062-063-066-070>080-084-089>092-220900-
SOUTH CENTRAL AND SOUTHEAST INDIANA

CITY           SKY/WX    TMP DP  RH WIND       PRES   REMARKS
BEDFORD +      MOCLDY    50  45  81 CALM      30.13S
BLOOMINGTON    PTCLDY    50  45  83 CALM      30.12S
MADISON *+     CLOUDY    54  45  71 CALM      30.13S
NORTH VERNON + PTCLDY    52  45  76 NW3       30.12F
SEYMOUR +      PTCLDY    55  43  62 CALM      30.12S

$$




USA.gov is the U.S. government's official web portal to all federal, state and local government web resources and services.